Location: Dulzura
(32.6442°N, 116.7814°W)
Time: 23:25:43
(UTC+00:00)

DUCHIFAT 1 - Visible Passes

Search period start: 22 March 2023 00:00
Search period end: 01 April 2023 00:00
Orbit: 571 x 585 km, 98.0° (Epoch: 21 March)

Date Brightness Start Highest point End Pass type
(mag) Time Alt. Az. Time Alt. Az. Time Alt. Az.
28 Mar ? 10:50:15 10° NNE 10:50:23 11° NNE 10:50:23 11° NNE visible
29 Mar ? 10:54:28 10° NNE 10:54:48 12° NNE 10:54:48 12° NNE visible
30 Mar ? 10:58:41 10° NNE 10:59:13 14° N 10:59:13 14° N visible
31 Mar ? 11:02:53 10° N 11:03:36 15° N 11:03:36 15° N visible
